Back to catalog

STARLINK-36537

AliveCommunicationsVLEO
NORAD 67516·PAYLOAD·🇺🇸 United States

Launched Jan 18, 2026 from Cape Canaveral Space Force Station

Loading…

Next Passes (next 24 hours)

TLE

FreshSource: CelesTrak SupGP

Epoch: Sep 14, 2026, 20:59 UTC

1 67516C 26012Z   26257.87479167 -.00020783  00000+0 -75269-3 0  2577
2 67516  43.0037 325.8416 0001786 275.3076 199.8862 15.27591715    12

Track STARLINK-36537 in real time with AllMySat

Download on the App Store